Terminal Aerodrome Forecast
Issued by NWS Columbia, SC

Home | Current Version | Previous Version | Text Only | Print | Product List | Glossary On
Versions: 1 2 3 4 5 6 7 8 9 10 11 12 13 14 15 16 17 18 19 20 21 22 23 24 25 26 27 28 29 30 31 32 33 34 35 36 37 38 39 40 41 42 43 44 45 46 47
000
FTUS42 KCAE 232101 AAA
TAFAGS
TAF AMD
KAGS 232101Z 2321/2418 19010KT P6SM SCT050 BKN200
     FM240100 20008KT P6SM SCT040 BKN200
     FM240600 23008KT P6SM SCT015 BKN100
     FM241400 26010KT P6SM BKN035=

USA.gov is the U.S. government's official web portal to all federal, state and local government web resources and services.